Tracking 19847 objects as of 16-Sep-2019
HD Live streaming from Space Station
objects crossing your sky now

FENGYUN 1C DEB

Track FENGYUN 1C DEB now!
10-day predictions


NORAD ID: 36734
Int'l Code: 1999-025EBG
Perigee: 832.0 km
Apogee: 892.5 km
Inclination: 99.0 °
Period: 102.0 minutes
Semi major axis: 7233 km
RCS: 0.0055 m2 (small)
Launch date: May 10, 1999
Source: People's Republic of China (PRC)
Launch site: Taiyaun Space Center, China (TSC)

Note: This is SATELLITE DEBRIS
aabbcc
Your satellite tracking list
Your tracking list is empty




NASA's NSSDC Master Catalog

Two Line Element Set (TLE):
1 36734U 99025EBG 19258.35040324 +.00000654 +00000-0 +38430-3 0  9990
2 36734 099.0402 228.8189 0041809 188.6318 171.4138 14.11252574504662
Source of the keplerian elements: AFSPC